STARLINK-5911 (55950 NORAD) Tracking and Keplerian Element Data

This shows tracking and keplerian element data for the satellite.

Feedback or suggestion? Click here.




ElementValue
Catalog55950
NameSTARLINK-5911
Epoch Orbit839
Epoch Day126.86658705
Epoch Year2023
RAAN40.2054
Inclination69.9977
Eccentricity0.0003598
Argument of Perigee267.9897
Mean Anonmoly92.0886
Mean Motion15.69935175
Decay Rate-1.363E-05
L11 55950U 23037AN 23126.86658705 -.00001363 00000+0 -95610-5 0 9998
L22 55950 69.9977 40.2054 0003598 267.9897 92.0886 15.69935175 8395



Live tracking and technical data element details for STARLINK-5911 (NORAD 55950). STARLINK-5911 can be tracked NOW for your location showing map with azimuth and elevation plus other details from your city location.







IsCatalogInMostPopularTable: catalog: 55950, numindb: 10
Update: records affected: 1



GetName: 55950 STARLINK-5911

Hit Count: updated at: Tue, 06 Jun 2023 02:22:43 GMT